Satellite-Ground Cal/Val Region Overpasses Predictions

Prediction of Satellite NPP Overpassing Cal/Val Region: PacNW

Region Location: (Latitude: 10.00, Longitude: 139.50) to (Latitude: 22.70, Longitude: 165.60).

Table of predicted overpasses for the next 14.0 days since TLE Epoch: 1/20/2018
Interval Starting Time Starting Location Ending Time Ending Location
1 01/21/2018 03:42:47 ( 10.05, 143.99) 01/21/2018 03:46:22 ( 22.67, 140.98)
2 01/21/2018 14:34:19 ( 18.56, 165.59) 01/21/2018 14:36:44 ( 10.04, 163.59)
3 01/21/2018 16:14:39 ( 22.66, 141.22) 01/21/2018 16:16:39 ( 15.62, 139.51)
4 01/22/2018 03:23:44 ( 10.06, 148.74) 01/22/2018 03:27:19 ( 22.68, 145.74)
5 01/22/2018 15:55:37 ( 22.65, 145.98) 01/22/2018 15:59:12 ( 10.03, 142.98)
6 01/23/2018 03:04:42 ( 10.06, 153.50) 01/23/2018 03:08:17 ( 22.68, 150.50)
7 01/23/2018 15:36:35 ( 22.65, 150.74) 01/23/2018 15:40:10 ( 10.03, 147.74)
8 01/24/2018 02:45:38 ( 10.00, 158.28) 01/24/2018 02:49:14 ( 22.68, 155.26)
9 01/24/2018 15:17:32 ( 22.65, 155.50) 01/24/2018 15:21:07 ( 10.03, 152.50)
10 01/25/2018 02:26:36 ( 10.01, 163.04) 01/25/2018 02:30:12 ( 22.69, 160.02)
11 01/25/2018 14:58:30 ( 22.64, 160.26) 01/25/2018 15:02:05 ( 10.02, 157.25)
12 01/26/2018 02:10:13 ( 19.41, 165.59) 01/26/2018 02:11:09 ( 22.69, 164.78)
13 01/26/2018 03:49:03 ( 10.02, 142.42) 01/26/2018 03:52:32 ( 22.29, 139.51)
14 01/26/2018 14:39:26 ( 22.70, 165.03) 01/26/2018 14:43:02 ( 10.02, 162.01)
15 01/26/2018 16:20:56 ( 22.69, 139.65) 01/26/2018 16:21:06 ( 22.10, 139.51)
16 01/27/2018 03:30:01 ( 10.02, 147.18) 01/27/2018 03:33:36 ( 22.64, 144.18)
17 01/27/2018 16:01:54 ( 22.68, 144.41) 01/27/2018 16:05:30 ( 10.00, 141.40)
18 01/28/2018 03:10:58 ( 10.03, 151.94) 01/28/2018 03:14:33 ( 22.65, 148.94)
19 01/28/2018 15:42:51 ( 22.68, 149.17) 01/28/2018 15:46:26 ( 10.06, 146.17)
20 01/29/2018 02:51:56 ( 10.03, 156.70) 01/29/2018 02:55:31 ( 22.66, 153.69)
21 01/29/2018 15:23:49 ( 22.67, 153.93) 01/29/2018 15:27:24 ( 10.05, 150.93)
22 01/30/2018 02:32:53 ( 10.04, 161.45) 01/30/2018 02:36:28 ( 22.66, 158.45)
23 01/30/2018 15:04:46 ( 22.67, 158.69) 01/30/2018 15:08:21 ( 10.05, 155.69)
24 01/31/2018 02:14:37 ( 12.75, 165.59) 01/31/2018 02:17:26 ( 22.67, 163.21)
25 01/31/2018 03:55:21 ( 10.05, 140.84) 01/31/2018 03:56:59 ( 15.81, 139.50)
26 01/31/2018 14:45:44 ( 22.66, 163.45) 01/31/2018 14:49:19 ( 10.04, 160.45)
27 02/01/2018 03:36:18 ( 10.00, 145.61) 02/01/2018 03:39:54 ( 22.68, 142.59)
28 02/01/2018 14:29:47 ( 11.74, 165.59) 02/01/2018 14:30:16 ( 10.03, 165.20)
29 02/01/2018 16:08:11 ( 22.65, 142.83) 02/01/2018 16:11:46 ( 10.02, 139.83)
30 02/02/2018 03:17:15 ( 10.01, 150.37) 02/02/2018 03:20:51 ( 22.69, 147.35)
31 02/02/2018 15:49:08 ( 22.70, 147.60) 02/02/2018 15:52:44 ( 10.02, 144.59)
32 02/03/2018 02:58:13 ( 10.02, 155.13) 02/03/2018 03:01:49 ( 22.70, 152.11)


NCC Satellite Cal/Val Overpasses Prediction Service
